{"data":{"norad_id":69842,"intl_designator":"2026-154Z","name":"STARLINK-37588","alt_names":[],"object_type":"PAYLOAD","status":"ACTIVE","operator":null,"country":"US","launch_date":"2026-07-05","launch_site_code":"AFETR","launch_vehicle":null,"mission":null,"orbit_class":"UNKNOWN","rcs_meters":null,"size_class":null,"mass_kg":null,"dimensions":null,"purposes":["comms"],"wikipedia_slug":null,"has_3d_model":false,"image_url":null,"decayed_at":null,"tle_current":{"epoch":"2026-09-20T04:53:36.763008Z","epoch_age_seconds":43403,"freshness":"FRESH","line1":"1 69842U 26154Z   26263.20389772  .00020281  00000+0  60966-3 0  9996","line2":"2 69842  53.1549 333.0139 0001720  85.6670 274.4529 15.34405024 13197","mean_motion":15.34405024,"eccentricity":0.000172,"inclination_deg":53.1549,"raan_deg":333.0139,"arg_perigee_deg":85.667,"mean_anomaly_deg":274.4529,"bstar":0.00060966,"rev_number":1319,"period_min":93.847450801882,"perigee_km":461.51168590814,"apogee_km":463.86492981404,"semimajor_km":6840.8253078611,"source":"CELESTRAK","updated_at":"2026-09-20T09:00:44.297325Z"}}}